Tracking 28790 objects as of 18-Apr-2024
HD Live streaming from Space Station
objects crossing your sky now

OPS 4682 DEB

Track OPS 4682 DEB now!
10-day predictions


NORAD ID: 38408
Int'l Code: 1965-027DM
Perigee: 1,230.4 km
Apogee: 1,296.5 km
Inclination: 90.3 °
Period: 110.6 minutes
Semi major axis: 7634 km
RCS: 0.011 m2 (small)
Launch date: April 3, 1965
Source: United States (US)
Launch site: AIR FORCE WESTERN TEST RANGE (AFWTR)

Note: This is SATELLITE DEBRIS
Your satellite tracking list
Your tracking list is empty




NASA's NSSDC Master Catalog

Two Line Element Set (TLE):
1 38408U 65027DM  24107.44258569  .00002300  00000-0  74274-2 0  9991
2 38408  90.2792 355.0441 0043308 113.4460 247.1225 13.01476410502190
Source of the keplerian elements: AFSPC